| time (UTC) | temp F | wind direction | speed MPH | gust MPH | rain 1hr in | rain 24hr in | rain mn in | humidity % | barometer mb |
| 20260509143011 | 47 | 209 | 0.0 | 2.0 | 0.00 | 0.00 | 0.00 | 84 | 1013.0 |
| 20260509141514 | 48 | 96 | 0.0 | 2.0 | 0.00 | 0.00 | 0.00 | 77 | 1013.1 |
| 20260509140019 | 48 | 267 | 0.0 | 8.0 | 0.00 | 0.00 | 0.00 | 73 | 1012.9 |
| 20260509134507 | 49 | 223 | 1.0 | 2.0 | 0.00 | 0.00 | 0.00 | 65 | 1012.9 |
| 20260509133011 | 49 | 259 | 0.0 | 2.0 | 0.00 | 0.00 | 0.00 | 61 | 1012.7 |
| 20260509131514 | 48 | 131 | 0.0 | 2.0 | 0.00 | 0.00 | 0.00 | 64 | 1012.7 |
| 20260509130019 | 47 | 24 | 0.0 | 2.0 | 0.00 | 0.00 | 0.00 | 65 | 1012.6 |
| 20260509124506 | 46 | 78 | 0.0 | 2.0 | 0.00 | 0.00 | 0.00 | 69 | 1013.1 |
| 20260509123008 | 44 | 132 | 0.0 | 2.0 | 0.00 | 0.00 | 0.00 | 73 | 1013.3 |
| 20260509121514 | 43 | 129 | 0.0 | 2.0 | 0.00 | 0.00 | 0.00 | 79 | 1013.5 |
| 20260509120017 | 41 | 38 | 0.0 | 2.0 | 0.00 | 0.00 | 0.00 | 77 | 1013.4 |
| 20260509114520 | 38 | 38 | 0.0 | 2.0 | 0.00 | 0.00 | 0.00 | 84 | 1013.4 |
| 20260509113005 | 35 | 24 | 1.0 | 2.0 | 0.00 | 0.00 | 0.00 | 95 | 1013.6 |
| 20260509111510 | 33 | 79 | 0.0 | 2.0 | 0.00 | 0.00 | 0.00 | 96 | 1013.6 |
| 20260509110016 | 32 | 19 | 0.0 | 2.0 | 0.00 | 0.00 | 0.00 | 96 | 1013.6 |
| 20260509104533 | 31 | 19 | 0.0 | 1.0 | 0.00 | 0.00 | 0.00 | 96 | 1013.5 |
| 20260509103023 | 30 | 17 | 0.0 | 2.0 | 0.00 | 0.00 | 0.00 | 96 | 1013.5 |
| 20260509101532 | 0 | 0.0 | 0.0 | 0.00 | 0.00 | 0.00 | 1013.6 | ||
| 20260509100024 | 0 | 0.0 | 0.0 | 0.00 | 0.00 | 0.00 | 1013.5 | ||
| 20260509094523 | 0 | 0.0 | 0.0 | 0.00 | 0.00 | 0.00 | 1013.2 | ||
| 20260509093038 | 0 | 0.0 | 0.0 | 0.00 | 0.00 | 0.00 | 1013.1 | ||
| 20260509091526 | 0 | 0.0 | 0.0 | 0.00 | 0.00 | 0.00 | 1012.9 | ||
| 20260509090029 | 0 | 0.0 | 0.0 | 0.00 | 0.00 | 0.00 | 1012.5 | ||
| 20260509084538 | 0 | 0.0 | 0.0 | 0.00 | 0.00 | 0.00 | 1012.7 | ||
| 20260509083029 | 0 | 0.0 | 0.0 | 0.00 | 0.00 | 0.00 | 1012.6 | ||
| 20260509081536 | 0 | 0.0 | 0.0 | 0.00 | 0.00 | 0.00 | 1012.4 | ||
| 20260509080040 | 28 | 30 | 0.0 | 0.0 | 0.00 | 0.00 | 0.00 | 92 | 1012.5 |
| 20260509074510 | 29 | 30 | 0.0 | 1.0 | 0.00 | 0.00 | 0.00 | 92 | 1012.5 |
| 20260509073017 | 29 | 33 | 0.0 | 2.0 | 0.00 | 0.00 | 0.00 | 95 | 1012.4 |
| 20260509071520 | 28 | 325 | 0.0 | 0.0 | 0.00 | 0.00 | 0.00 | 92 | 1012.7 |
| 20260509070024 | 28 | 325 | 0.0 | 0.0 | 0.00 | 0.00 | 0.00 | 91 | 1012.7 |
| 20260509064528 | 29 | 325 | 0.0 | 0.0 | 0.00 | 0.00 | 0.00 | 91 | 1012.9 |
| 20260509063014 | 29 | 325 | 0.0 | 0.0 | 0.00 | 0.00 | 0.00 | 91 | 1012.9 |
| 20260509061517 | 30 | 325 | 0.0 | 0.0 | 0.00 | 0.00 | 0.00 | 91 | 1013.0 |
| 20260509060022 | 30 | 325 | 0.0 | 0.0 | 0.00 | 0.00 | 0.00 | 91 | 1013.0 |
| 20260509054529 | 30 | 325 | 0.0 | 0.0 | 0.00 | 0.00 | 0.00 | 90 | 1013.0 |
| 20260509053035 | 31 | 325 | 0.0 | 0.0 | 0.00 | 0.00 | 0.00 | 90 | 1012.8 |
| 20260509051523 | 31 | 325 | 0.0 | 0.0 | 0.00 | 0.00 | 0.00 | 90 | 1012.7 |
| 20260509050019 | 31 | 325 | 0.0 | 0.0 | 0.00 | 0.00 | 0.00 | 89 | 1012.5 |
| 20260509044522 | 32 | 325 | 0.0 | 0.0 | 0.00 | 0.00 | 0.00 | 88 | 1012.4 |
| 20260509043026 | 32 | 325 | 0.0 | 0.0 | 0.00 | 0.00 | 0.00 | 88 | 1012.4 |
| 20260509041528 | 33 | 325 | 0.0 | 0.0 | 0.00 | 0.00 | 0.00 | 87 | 1012.3 |
| 20260509040015 | 33 | 325 | 0.0 | 0.0 | 0.00 | 0.00 | 0.00 | 86 | 1012.4 |
| 20260509034525 | 34 | 325 | 0.0 | 0.0 | 0.00 | 0.00 | 0.00 | 85 | 1012.3 |
| 20260509033025 | 35 | 325 | 0.0 | 0.0 | 0.00 | 0.00 | 0.00 | 85 | 1012.2 |
| 20260509031532 | 35 | 325 | 0.0 | 2.0 | 0.00 | 0.00 | 0.00 | 84 | 1012.0 |
| 20260509030028 | 36 | 305 | 0.0 | 2.0 | 0.00 | 0.00 | 0.00 | 83 | 1012.0 |
| 20260509024517 | 37 | 313 | 0.0 | 2.0 | 0.00 | 0.00 | 0.00 | 81 | 1011.8 |
| 20260509023024 | 37 | 310 | 0.0 | 0.0 | 0.00 | 0.00 | 0.00 | 81 | 1011.7 |
| 20260509021527 | 38 | 310 | 0.0 | 0.0 | 0.00 | 0.00 | 0.00 | 78 | 1011.5 |
| 20260509020032 | 40 | 310 | 0.0 | 0.0 | 0.00 | 0.00 | 0.00 | 77 | 1011.2 |
| 20260509014538 | 40 | 310 | 0.0 | 0.0 | 0.00 | 0.00 | 0.00 | 76 | 1011.1 |
| 20260509013017 | 41 | 310 | 0.0 | 0.0 | 0.00 | 0.00 | 0.00 | 75 | 1010.9 |
| 20260509011520 | 42 | 310 | 0.0 | 2.0 | 0.00 | 0.00 | 0.00 | 73 | 1010.7 |
| 20260509010009 | 43 | 212 | 0.0 | 0.0 | 0.00 | 0.00 | 0.00 | 71 | 1010.4 |
| 20260509004516 | 44 | 211 | 0.0 | 0.0 | 0.00 | 0.00 | 0.00 | 66 | 1010.2 |
| 20260509003028 | 46 | 130 | 0.0 | 2.0 | 0.00 | 0.00 | 0.00 | 61 | 1009.9 |
| 20260509001519 | 47 | 116 | 0.0 | 2.0 | 0.00 | 0.00 | 0.00 | 60 | 1009.8 |
| 20260509000023 | 48 | 44 | 1.0 | 3.0 | 0.00 | 0.00 | 0.00 | 58 | 1009.6 |
| 20260508234510 | 48 | 148 | 0.0 | 4.0 | 0.00 | 0.00 | 0.00 | 57 | 1009.3 |
| 20260508233012 | 49 | 119 | 1.0 | 4.0 | 0.00 | 0.00 | 0.00 | 56 | 1009.2 |
| 20260508231518 | 49 | 130 | 1.0 | 5.0 | 0.00 | 0.00 | 0.00 | 54 | 1009.0 |
| 20260508230022 | 50 | 217 | 2.0 | 7.0 | 0.00 | 0.00 | 0.00 | 51 | 1008.8 |
| 20260508224508 | 50 | 203 | 2.0 | 10.0 | 0.00 | 0.00 | 0.00 | 49 | 1008.8 |
| 20260508223022 | 52 | 206 | 1.0 | 10.0 | 0.00 | 0.00 | 0.00 | 47 | 1008.6 |
| 20260508221516 | 53 | 128 | 1.0 | 5.0 | 0.00 | 0.00 | 0.00 | 38 | 1008.5 |
| 20260508220022 | 53 | 184 | 1.0 | 6.0 | 0.00 | 0.00 | 0.00 | 38 | 1008.4 |
| 20260508214527 | 52 | 25 | 2.0 | 6.0 | 0.00 | 0.00 | 0.00 | 41 | 1008.2 |
| 20260508213008 | 52 | 92 | 1.0 | 4.0 | 0.00 | 0.00 | 0.00 | 38 | 1008.3 |
| 20260508211525 | 52 | 329 | 1.0 | 9.0 | 0.00 | 0.00 | 0.00 | 40 | 1008.2 |
| 20260508210018 | 52 | 24 | 1.0 | 9.0 | 0.00 | 0.00 | 0.00 | 39 | 1008.1 |
| 20260508204522 | 52 | 334 | 4.0 | 8.0 | 0.00 | 0.00 | 0.00 | 38 | 1008.0 |
| 20260508203028 | 52 | 301 | 4.0 | 8.0 | 0.00 | 0.00 | 0.00 | 38 | 1007.9 |
| 20260508201510 | 52 | 267 | 2.0 | 8.0 | 0.00 | 0.00 | 0.00 | 37 | 1007.8 |
| 20260508200024 | 52 | 205 | 3.0 | 6.0 | 0.00 | 0.00 | 0.00 | 39 | 1007.9 |
| 20260508194520 | 52 | 242 | 0.0 | 8.0 | 0.00 | 0.00 | 0.00 | 38 | 1008.0 |
| 20260508193024 | 53 | 92 | 3.0 | 11.0 | 0.00 | 0.00 | 0.00 | 43 | 1008.0 |
| 20260508191529 | 52 | 165 | 4.0 | 10.0 | 0.00 | 0.00 | 0.00 | 37 | 1008.0 |
| 20260508190018 | 52 | 272 | 2.0 | 8.0 | 0.00 | 0.00 | 0.00 | 38 | 1008.0 |
| 20260508184521 | 52 | 240 | 1.0 | 8.0 | 0.00 | 0.00 | 0.00 | 41 | 1008.0 |
| 20260508183024 | 52 | 25 | 3.0 | 9.0 | 0.00 | 0.00 | 0.00 | 40 | 1008.0 |
| 20260508181509 | 52 | 250 | 0.0 | 7.0 | 0.00 | 0.00 | 0.00 | 40 | 1008.1 |
| 20260508180010 | 51 | 242 | 2.0 | 11.0 | 0.00 | 0.00 | 0.00 | 41 | 1008.2 |
| 20260508174518 | 51 | 279 | 2.0 | 10.0 | 0.00 | 0.00 | 0.00 | 42 | 1008.4 |
| 20260508173020 | 51 | 254 | 3.0 | 8.0 | 0.00 | 0.00 | 0.00 | 44 | 1008.4 |
| 20260508171529 | 50 | 216 | 3.0 | 12.0 | 0.00 | 0.00 | 0.00 | 41 | 1008.5 |
| 20260508170010 | 50 | 328 | 3.0 | 8.0 | 0.00 | 0.00 | 0.00 | 41 | 1008.5 |
| 20260508164515 | 49 | 301 | 2.0 | 11.0 | 0.00 | 0.00 | 0.00 | 41 | 1008.5 |
| 20260508163020 | 50 | 261 | 2.0 | 8.0 | 0.00 | 0.00 | 0.00 | 42 | 1008.5 |
| 20260508161524 | 50 | 325 | 4.0 | 10.0 | 0.00 | 0.00 | 0.00 | 41 | 1008.5 |
| 20260508160026 | 50 | 67 | 4.0 | 12.0 | 0.00 | 0.00 | 0.00 | 42 | 1008.2 |
| 20260508154511 | 51 | 13 | 2.0 | 7.0 | 0.00 | 0.00 | 0.00 | 40 | 1008.0 |
| 20260508153018 | 51 | 23 | 5.0 | 14.0 | 0.00 | 0.00 | 0.00 | 37 | 1008.1 |
| 20260508151530 | 50 | 290 | 2.0 | 11.0 | 0.00 | 0.00 | 0.00 | 43 | 1008.0 |
| 20260508150028 | 50 | 252 | 4.0 | 16.0 | 0.00 | 0.00 | 0.00 | 37 | 1008.2 |
| 20260508144528 | 50 | 282 | 4.0 | 12.0 | 0.00 | 0.00 | 0.00 | 38 | 1008.2 |